Hayward, WI

4:12 PM CST on December 08, 2016 (GMT -0600)
Sawyer County

Weather History for KHYR - May, 2013

Change the Weather History Date:

Sunday, May 5, 2013

  Actual Average Record
Temperature  
Mean Temperature 44 °F -  
Max Temperature 54 °F 75 °F 84 °F (2000)
Min Temperature 33 °F 44 °F 23 °F (2002)
Degree Days  
Heating Degree Days 22    
Moisture  
Dew Point 34 °F    
Average Humidity 79    
Maximum Humidity 93    
Minimum Humidity 57    
Precipitation  
Precipitation 0.00 in - - ()
Sea Level Pressure  
Sea Level Pressure 30.18 in    
Wind  
Wind Speed 2 mph (NE)    
Max Wind Speed 7 mph    
Max Gust Speed -    
Visibility 10 miles    
Events      
Averages and records for this station are not official NWS values.
T = Trace of Precipitation, MM = Missing Value Source: NWS Daily Summary

Daily Weather History Graph

Daily Weather History Graph

Search for Another Location

Airport or City:

Trip Planner

Search our weather history database for the weather conditions in past years. The results will help you decide how hot, cold, wet, or windy it might be!

Date:

Astronomy

May. 05, 2013 Rise Set
Actual Time 5:46 AM CDT 8:19 PM CDT
Civil Twilight 5:12 AM CDT 8:53 PM CDT
Nautical Twilight 4:30 AM CDT 9:35 PM CDT
Astronomical Twilight 3:41 AM CDT 10:24 PM CDT
Moon 3:30 AM CDT (5/5) 4:07 PM CDT (5/5)
Length of Visible Light 15h 40m
Length of Day
14h 33m
Waning Crescent, 18% of the Moon is Illuminated
May 5
Waning Crescent
May 9
New
May 17
First Quarter
May 24
Full
May 31
Last Quarter

Hourly Weather History & Observations

Time (CDT) Temp. Windchill Dew Point Humidity Pressure Visibility Wind Dir Wind Speed Gust Speed Precip Events Conditions
12:53 AM 34.0 °F - 32.0 °F 92% 30.23 in 10.0 mi Calm Calm - N/A   Overcast
1:53 AM 34.0 °F 31.0 °F 32.0 °F 92% 30.21 in 10.0 mi Variable 3.5 mph - N/A   Overcast
2:51 AM 33.8 °F - 32.0 °F 93% 30.16 in 10.0 mi Calm Calm - N/A   Overcast
2:53 AM 34.0 °F - 32.0 °F 92% 30.20 in 10.0 mi Calm Calm - N/A   Overcast
3:53 AM 34.0 °F 29.8 °F 32.0 °F 92% 30.20 in 10.0 mi NE 4.6 mph - N/A   Overcast
4:53 AM 34.0 °F - 32.0 °F 92% 30.20 in 10.0 mi Calm Calm - N/A   Overcast
5:53 AM 34.0 °F - 32.0 °F 92% 30.21 in 10.0 mi Calm Calm - N/A   Overcast
6:53 AM 34.0 °F 29.8 °F 32.0 °F 92% 30.21 in 10.0 mi NNE 4.6 mph - N/A   Overcast
7:39 AM 35.6 °F 32.8 °F 32.0 °F 87% 30.17 in 10.0 mi Variable 3.5 mph - N/A   Overcast
7:53 AM 36.0 °F 33.3 °F 32.0 °F 86% 30.22 in 10.0 mi Variable 3.5 mph - N/A   Overcast
8:53 AM 39.0 °F 36.8 °F 34.0 °F 82% 30.22 in 10.0 mi Variable 3.5 mph - N/A   Mostly Cloudy
9:01 AM 39.2 °F 35.9 °F 33.8 °F 81% 30.18 in 10.0 mi Variable 4.6 mph - N/A   Scattered Clouds
9:53 AM 39.9 °F 37.8 °F 34.0 °F 79% 30.23 in 10.0 mi Variable 3.5 mph - N/A   Clear
10:53 AM 43.0 °F 41.3 °F 35.1 °F 74% 30.21 in 10.0 mi Variable 3.5 mph - N/A   Clear
11:53 AM 46.0 °F 44.8 °F 36.0 °F 68% 30.21 in 10.0 mi NNE 3.5 mph - N/A   Clear
1:53 PM 50.0 °F - 37.9 °F 63% 30.18 in 10.0 mi NE 4.6 mph - N/A   Clear
2:53 PM 53.1 °F - 39.0 °F 59% 30.17 in 10.0 mi Variable 3.5 mph - N/A   Clear
3:53 PM 54.0 °F - 39.0 °F 57% 30.15 in 10.0 mi Variable 4.6 mph - N/A   Clear
4:53 PM 53.1 °F - 39.0 °F 59% 30.15 in 10.0 mi Variable 4.6 mph - N/A   Clear
5:53 PM 53.1 °F - 39.0 °F 59% 30.15 in 10.0 mi NE 6.9 mph - N/A   Clear
6:53 PM 51.1 °F - 37.9 °F 61% 30.14 in 10.0 mi NE 5.8 mph - N/A   Clear
7:53 PM 46.9 °F - 37.0 °F 68% 30.14 in 10.0 mi Variable 3.5 mph - N/A   Clear
8:53 PM 43.0 °F 41.3 °F 36.0 °F 76% 30.15 in 10.0 mi NNE 3.5 mph - N/A   Clear
9:53 PM 39.9 °F - 35.1 °F 83% 30.17 in 10.0 mi Calm Calm - N/A   Clear
10:53 PM 34.0 °F - 30.9 °F 89% 30.16 in 10.0 mi Calm Calm - N/A   Clear
11:53 PM 35.1 °F - 33.1 °F 92% 30.15 in 10.0 mi Calm Calm - N/A   Scattered Clouds